UAL402 KLAX-KSLC

Flight info

Callsign UAL402
Flight time 1h 33m
Altitude 35000
Route ORCKA5 LAS Q70 BLIPP Q842 WINEN MLF QWENN6
Aircraft B38M/M-SDE1FGHILORVWXY/HB1

Departure

Time 2026-04-20 23:17
Airport Los Angeles International Airport (KLAX)

Arrival

Time 2026-04-21 00:50
Airport Salt Lake City International Airport (KSLC)
Time Latitude Longitude Altitude Speed Heading
2026-04-20 22:45 33.94640 -118.40634 128 ft 0 kts 286°
2026-04-20 22:59 33.94640 -118.40631 128 ft 2 kts 285°
2026-04-20 22:59 33.94635 -118.40612 128 ft 2 kts 288°
2026-04-20 23:00 33.94629 -118.40594 124 ft 2 kts 292°
2026-04-20 23:00 33.94622 -118.40576 125 ft 2 kts 302°
2026-04-20 23:00 33.94611 -118.40562 126 ft 2 kts 339°
2026-04-20 23:00 33.94602 -118.40559 127 ft 0 kts 356°
2026-04-20 23:05 33.94635 -118.40564 143 ft 9 kts 353°
2026-04-20 23:05 33.94690 -118.40572 126 ft 7 kts 352°
2026-04-20 23:05 33.94743 -118.40580 127 ft 8 kts 351°
2026-04-20 23:05 33.94778 -118.40637 125 ft 12 kts 268°
2026-04-20 23:06 33.94767 -118.40757 128 ft 16 kts 262°
2026-04-20 23:06 33.94753 -118.40896 128 ft 17 kts 263°
2026-04-20 23:06 33.94739 -118.41034 128 ft 13 kts 263°
2026-04-20 23:06 33.94727 -118.41142 128 ft 13 kts 259°
2026-04-20 23:07 33.94699 -118.41253 126 ft 14 kts 255°
2026-04-20 23:07 33.94672 -118.41367 123 ft 14 kts 214°
2026-04-20 23:07 33.94575 -118.41367 125 ft 15 kts 172°
2026-04-20 23:07 33.94466 -118.41352 125 ft 17 kts 173°
2026-04-20 23:08 33.94352 -118.41335 126 ft 16 kts 173°
2026-04-20 23:08 33.94235 -118.41318 126 ft 18 kts 173°
2026-04-20 23:08 33.94153 -118.41305 126 ft 19 kts 173°
2026-04-20 23:08 33.93992 -118.41281 127 ft 16 kts 173°
2026-04-20 23:09 33.93893 -118.41267 126 ft 15 kts 173°
2026-04-20 23:09 33.93786 -118.41249 126 ft 16 kts 159°
2026-04-20 23:09 33.93758 -118.41179 127 ft 15 kts 85°
2026-04-20 23:09 33.93776 -118.40999 128 ft 17 kts 83°
2026-04-20 23:10 33.93791 -118.40851 128 ft 18 kts 83°
2026-04-20 23:10 33.93802 -118.40749 127 ft 18 kts 82°
2026-04-20 23:10 33.93817 -118.40598 128 ft 19 kts 83°
2026-04-20 23:10 33.93832 -118.40453 128 ft 18 kts 83°
2026-04-20 23:11 33.93847 -118.40302 128 ft 18 kts 83°
2026-04-20 23:11 33.93862 -118.40153 128 ft 17 kts 83°
2026-04-20 23:11 33.93878 -118.40004 128 ft 19 kts 83°
2026-04-20 23:11 33.93892 -118.39862 128 ft 18 kts 83°
2026-04-20 23:12 33.93908 -118.39709 128 ft 19 kts 83°
2026-04-20 23:12 33.93923 -118.39554 128 ft 17 kts 83°
2026-04-20 23:12 33.93938 -118.39407 126 ft 18 kts 83°
2026-04-20 23:12 33.93954 -118.39256 123 ft 18 kts 83°
2026-04-20 23:13 33.93969 -118.39113 127 ft 18 kts 83°
2026-04-20 23:13 33.93984 -118.38963 127 ft 19 kts 83°
2026-04-20 23:13 33.94000 -118.38809 125 ft 18 kts 83°
2026-04-20 23:13 33.94015 -118.38657 127 ft 18 kts 83°
2026-04-20 23:14 33.94031 -118.38500 128 ft 20 kts 83°
2026-04-20 23:14 33.94047 -118.38345 128 ft 18 kts 82°
2026-04-20 23:14 33.94063 -118.38196 128 ft 18 kts 83°
2026-04-20 23:14 33.94077 -118.38057 128 ft 13 kts 84°
2026-04-20 23:15 33.94072 -118.38021 128 ft 0 kts 121°
2026-04-20 23:15 33.94057 -118.38008 126 ft 8 kts 147°
2026-04-20 23:15 33.93996 -118.38004 125 ft 7 kts 224°
2026-04-20 23:16 33.93981 -118.38068 126 ft 0 kts 262°
2026-04-20 23:16 33.93971 -118.38168 128 ft 46 kts 262°
2026-04-20 23:17 33.93897 -118.38889 128 ft 125 kts 263°
2026-04-20 23:17 33.93776 -118.40137 423 ft 166 kts 263°
2026-04-20 23:17 33.93642 -118.41656 979 ft 202 kts 263°
2026-04-20 23:17 33.93450 -118.43361 2146 ft 210 kts 261°
2026-04-20 23:18 33.93253 -118.45273 2708 ft 255 kts 263°
2026-04-20 23:18 33.92806 -118.47445 3623 ft 267 kts 248°
2026-04-20 23:18 33.92092 -118.49452 5237 ft 260 kts 238°
2026-04-20 23:18 33.90898 -118.51047 6348 ft 262 kts 211°
2026-04-20 23:19 33.89196 -118.51827 7583 ft 261 kts 189°
2026-04-20 23:19 33.87384 -118.51758 8528 ft 271 kts 165°
2026-04-20 23:19 33.85741 -118.50693 9758 ft 273 kts 141°
2026-04-20 23:19 33.84587 -118.48819 10625 ft 289 kts 115°
2026-04-20 23:20 33.84226 -118.46409 11494 ft 304 kts 89°
2026-04-20 23:20 33.84877 -118.43957 12327 ft 317 kts 59°
2026-04-20 23:20 33.86471 -118.42093 13108 ft 328 kts 29°
2026-04-20 23:20 33.88646 -118.41334 13938 ft 328 kts 358°
2026-04-20 23:21 33.90866 -118.41860 14573 ft 330 kts 330°
2026-04-20 23:21 33.92949 -118.43252 14665 ft 358 kts 330°
2026-04-20 23:21 33.95476 -118.44036 14683 ft 397 kts 356°
2026-04-20 23:21 33.98238 -118.43402 14954 ft 415 kts 26°
2026-04-20 23:22 34.00470 -118.41313 16116 ft 398 kts 53°
2026-04-20 23:22 34.01696 -118.38441 17245 ft 380 kts 79°
2026-04-20 23:22 34.01844 -118.35315 17819 ft 374 kts 106°
2026-04-20 23:22 34.01155 -118.32291 18237 ft 380 kts 108°
2026-04-20 23:23 34.01052 -118.29082 18887 ft 390 kts 84°
2026-04-20 23:23 34.01985 -118.25980 19408 ft 402 kts 59°
2026-04-20 23:23 34.03884 -118.23508 19988 ft 406 kts 38°
2026-04-20 23:23 34.06032 -118.21266 20409 ft 411 kts 52°
2026-04-20 23:24 34.07543 -118.18374 20995 ft 408 kts 62°
2026-04-20 23:24 34.09095 -118.15469 21421 ft 415 kts 58°
2026-04-20 23:24 34.10709 -118.12568 21985 ft 417 kts 58°
2026-04-20 23:24 34.12341 -118.09658 22489 ft 420 kts 58°
2026-04-20 23:25 34.13988 -118.06728 23012 ft 423 kts 58°
2026-04-20 23:25 34.15644 -118.03786 23579 ft 424 kts 58°
2026-04-20 23:25 34.17307 -118.00835 24020 ft 427 kts 58°
2026-04-20 23:25 34.18981 -117.97861 24447 ft 429 kts 58°
2026-04-20 23:26 34.20662 -117.94872 24870 ft 432 kts 58°
2026-04-20 23:26 34.22355 -117.91859 25295 ft 434 kts 58°
2026-04-20 23:26 34.24054 -117.88830 25706 ft 437 kts 58°
2026-04-20 23:26 34.25764 -117.85781 26127 ft 439 kts 58°
2026-04-20 23:27 34.27482 -117.82715 26497 ft 443 kts 57°
2026-04-20 23:27 34.29214 -117.79621 26901 ft 445 kts 57°
2026-04-20 23:27 34.30953 -117.76513 27235 ft 449 kts 57°
2026-04-20 23:27 34.32702 -117.73381 27678 ft 450 kts 57°
2026-04-20 23:28 34.34461 -117.70237 28019 ft 453 kts 56°
2026-04-20 23:28 34.36309 -117.67154 28406 ft 455 kts 55°
2026-04-20 23:28 34.38185 -117.64034 28728 ft 458 kts 55°
2026-04-20 23:28 34.40058 -117.60901 29047 ft 461 kts 55°
2026-04-20 23:29 34.41936 -117.57752 29399 ft 462 kts 55°
2026-04-20 23:29 34.43796 -117.54630 29703 ft 465 kts 56°
2026-04-20 23:29 34.45692 -117.51444 30089 ft 467 kts 56°
2026-04-20 23:29 34.47595 -117.48245 30359 ft 469 kts 56°
2026-04-20 23:30 34.49504 -117.45031 30619 ft 471 kts 56°
2026-04-20 23:30 34.51420 -117.41802 30921 ft 473 kts 56°
2026-04-20 23:30 34.53345 -117.38557 31164 ft 475 kts 56°
2026-04-20 23:30 34.55279 -117.35293 31424 ft 477 kts 55°
2026-04-20 23:31 34.57219 -117.32015 31683 ft 480 kts 56°
2026-04-20 23:31 34.59169 -117.28717 31949 ft 482 kts 55°
2026-04-20 23:31 34.61125 -117.25407 32211 ft 484 kts 55°
2026-04-20 23:31 34.63090 -117.22078 32442 ft 486 kts 55°
2026-04-20 23:32 34.65061 -117.18736 32617 ft 488 kts 55°
2026-04-20 23:32 34.67041 -117.15374 32856 ft 490 kts 56°
2026-04-20 23:32 34.69024 -117.12007 33202 ft 490 kts 56°
2026-04-20 23:32 34.71002 -117.08642 33545 ft 490 kts 55°
2026-04-20 23:33 34.72982 -117.05272 33870 ft 489 kts 55°
2026-04-20 23:33 34.74960 -117.01903 34156 ft 489 kts 56°
2026-04-20 23:33 34.76931 -116.98540 34447 ft 489 kts 56°
2026-04-20 23:33 34.78903 -116.95174 34749 ft 488 kts 56°
2026-04-20 23:34 34.80875 -116.91806 34941 ft 489 kts 56°
2026-04-20 23:34 34.82842 -116.88441 34967 ft 488 kts 56°
2026-04-20 23:34 34.86752 -116.81745 34945 ft 483 kts 56°
2026-04-20 23:35 34.92711 -116.71837 34933 ft 484 kts 48°
2026-04-20 23:36 34.97288 -116.65808 34928 ft 485 kts 48°
2026-04-20 23:36 35.01871 -116.59767 34914 ft 485 kts 48°
2026-04-20 23:37 35.06449 -116.53726 34896 ft 484 kts 49°
2026-04-20 23:37 35.11005 -116.47706 34868 ft 482 kts 49°
2026-04-20 23:38 35.15519 -116.41729 34875 ft 482 kts 49°
2026-04-20 23:38 35.20094 -116.35661 34920 ft 482 kts 49°
2026-04-20 23:39 35.24604 -116.29669 34896 ft 481 kts 49°
2026-04-20 23:39 35.29135 -116.23637 34881 ft 481 kts 50°
2026-04-20 23:40 35.33652 -116.17615 34883 ft 479 kts 50°
2026-04-20 23:40 35.38158 -116.11595 34901 ft 479 kts 50°
2026-04-20 23:41 35.42664 -116.05566 34905 ft 479 kts 50°
2026-04-20 23:41 35.47165 -115.99531 34924 ft 480 kts 50°
2026-04-20 23:42 35.51664 -115.93489 34910 ft 479 kts 50°
2026-04-20 23:42 35.56136 -115.87473 34931 ft 476 kts 50°
2026-04-20 23:43 35.60597 -115.81463 34933 ft 476 kts 50°
2026-04-20 23:43 35.65029 -115.75418 34947 ft 476 kts 50°
2026-04-20 23:44 35.69443 -115.69353 34944 ft 476 kts 50°
2026-04-20 23:44 35.73852 -115.63288 34932 ft 475 kts 50°
2026-04-20 23:45 35.78243 -115.57235 34947 ft 473 kts 50°
2026-04-20 23:45 35.82624 -115.51188 34964 ft 473 kts 50°
2026-04-20 23:46 35.86998 -115.45138 34954 ft 473 kts 50°
2026-04-20 23:46 35.91376 -115.39073 34945 ft 473 kts 50°
2026-04-20 23:47 35.95747 -115.33005 34945 ft 473 kts 50°
2026-04-20 23:47 36.00113 -115.26935 34957 ft 472 kts 50°
2026-04-20 23:48 36.04469 -115.20868 34931 ft 472 kts 50°
2026-04-20 23:48 36.08955 -115.14941 34930 ft 473 kts 42°
2026-04-20 23:49 36.13921 -115.09587 34934 ft 474 kts 42°
2026-04-20 23:49 36.18888 -115.04234 34879 ft 473 kts 42°
2026-04-20 23:50 36.23848 -114.98884 34873 ft 473 kts 42°
2026-04-20 23:50 36.28828 -114.93503 34882 ft 476 kts 42°
2026-04-20 23:51 36.33774 -114.88149 34862 ft 475 kts 43°
2026-04-20 23:51 36.38749 -114.82753 34854 ft 475 kts 42°
2026-04-20 23:52 36.43717 -114.77358 34838 ft 475 kts 43°
2026-04-20 23:52 36.48680 -114.71959 34818 ft 474 kts 43°
2026-04-20 23:53 36.53638 -114.66557 34822 ft 476 kts 42°
2026-04-20 23:53 36.58610 -114.61130 34821 ft 474 kts 43°
2026-04-20 23:54 36.63568 -114.55708 34824 ft 474 kts 43°
2026-04-20 23:54 36.68517 -114.50287 34822 ft 474 kts 43°
2026-04-20 23:55 36.73775 -114.45354 34840 ft 474 kts 32°
2026-04-20 23:55 36.79369 -114.40966 34825 ft 475 kts 33°
2026-04-20 23:56 36.84971 -114.36572 34838 ft 476 kts 32°
2026-04-20 23:56 36.89613 -114.32923 34841 ft 473 kts 32°
2026-04-20 23:57 36.95176 -114.28545 34848 ft 472 kts 32°
2026-04-20 23:57 37.00724 -114.24170 34846 ft 472 kts 32°
2026-04-20 23:58 37.06290 -114.19775 34853 ft 474 kts 32°
2026-04-20 23:58 37.11868 -114.15360 34867 ft 473 kts 32°
2026-04-20 23:59 37.17425 -114.10957 34883 ft 472 kts 32°
2026-04-20 23:59 37.22975 -114.06551 34883 ft 473 kts 32°
2026-04-21 00:00 37.28513 -114.02146 34891 ft 470 kts 32°
2026-04-21 00:00 37.34028 -113.97751 34914 ft 469 kts 32°
2026-04-21 00:01 37.39529 -113.93360 34912 ft 468 kts 32°
2026-04-21 00:01 37.45030 -113.88962 34917 ft 468 kts 32°
2026-04-21 00:02 37.50516 -113.84567 34921 ft 467 kts 32°
2026-04-21 00:02 37.56001 -113.80166 34935 ft 467 kts 32°
2026-04-21 00:03 37.61474 -113.75766 34924 ft 466 kts 32°
2026-04-21 00:03 37.66938 -113.71367 34932 ft 463 kts 32°
2026-04-21 00:04 37.72354 -113.66998 34933 ft 461 kts 32°
2026-04-21 00:04 37.77730 -113.62653 34938 ft 462 kts 32°
2026-04-21 00:05 37.83149 -113.58266 34930 ft 463 kts 32°
2026-04-21 00:05 37.88579 -113.53865 34927 ft 464 kts 32°
2026-04-21 00:06 37.93940 -113.49318 34902 ft 463 kts 40°
2026-04-21 00:06 37.98747 -113.43865 34916 ft 465 kts 41°
2026-04-21 00:07 38.03549 -113.38428 34925 ft 460 kts 40°
2026-04-21 00:07 38.08306 -113.33024 34921 ft 459 kts 40°
2026-04-21 00:08 38.13055 -113.27618 34914 ft 457 kts 40°
2026-04-21 00:08 38.17796 -113.22213 34944 ft 458 kts 41°
2026-04-21 00:09 38.22532 -113.16803 34966 ft 458 kts 40°
2026-04-21 00:09 38.27264 -113.11388 34995 ft 457 kts 41°
2026-04-21 00:10 38.31992 -113.05969 35025 ft 458 kts 40°
2026-04-21 00:10 38.36973 -113.00996 34969 ft 452 kts 22°
2026-04-21 00:11 38.42736 -112.97823 34990 ft 453 kts 21°
2026-04-21 00:11 38.48498 -112.94694 35037 ft 453 kts 21°
2026-04-21 00:12 38.54306 -112.91591 35011 ft 453 kts 21°
2026-04-21 00:12 38.60117 -112.88483 34986 ft 453 kts 21°
2026-04-21 00:13 38.65933 -112.85369 34947 ft 453 kts 21°
2026-04-21 00:13 38.71726 -112.82261 34836 ft 445 kts 20°
2026-04-21 00:13 38.74553 -112.80740 34489 ft 438 kts 21°
2026-04-21 00:14 38.77357 -112.79230 33964 ft 437 kts 21°
2026-04-21 00:14 38.80157 -112.77726 33355 ft 436 kts 21°
2026-04-21 00:14 38.82943 -112.76225 32831 ft 433 kts 20°
2026-04-21 00:14 38.85714 -112.74732 32320 ft 431 kts 21°
2026-04-21 00:15 38.88467 -112.73246 31840 ft 428 kts 21°
2026-04-21 00:15 38.91198 -112.71771 31387 ft 424 kts 21°
2026-04-21 00:15 38.93913 -112.70303 30943 ft 422 kts 21°
2026-04-21 00:15 38.96610 -112.68844 30466 ft 420 kts 20°
2026-04-21 00:16 38.99298 -112.67389 29986 ft 418 kts 20°
2026-04-21 00:16 39.01975 -112.65938 29458 ft 417 kts 20°
2026-04-21 00:16 39.04641 -112.64493 28985 ft 414 kts 20°
2026-04-21 00:16 39.07283 -112.63058 28548 ft 411 kts 20°
2026-04-21 00:17 39.09904 -112.61634 28125 ft 408 kts 20°
2026-04-21 00:17 39.12508 -112.60219 27683 ft 405 kts 21°
2026-04-21 00:17 39.15098 -112.58809 27252 ft 403 kts 21°
2026-04-21 00:17 39.17670 -112.57409 26830 ft 400 kts 20°
2026-04-21 00:18 39.20229 -112.56014 26421 ft 398 kts 20°
2026-04-21 00:18 39.22741 -112.54644 26016 ft 396 kts 21°
2026-04-21 00:18 39.25273 -112.53262 25609 ft 394 kts 21°
2026-04-21 00:18 39.27793 -112.51886 25199 ft 393 kts 21°
2026-04-21 00:19 39.30301 -112.50500 24791 ft 392 kts 22°
2026-04-21 00:19 39.32792 -112.49068 24358 ft 392 kts 21°
2026-04-21 00:19 39.35281 -112.47641 23989 ft 390 kts 21°
2026-04-21 00:19 39.37758 -112.46222 23599 ft 389 kts 21°
2026-04-21 00:20 39.40231 -112.44805 23163 ft 388 kts 22°
2026-04-21 00:20 39.42693 -112.43393 22736 ft 386 kts 22°
2026-04-21 00:20 39.45143 -112.41987 22337 ft 384 kts 22°
2026-04-21 00:20 39.47578 -112.40589 21951 ft 381 kts 22°
2026-04-21 00:21 39.49993 -112.39202 21566 ft 379 kts 22°
2026-04-21 00:21 39.52394 -112.37821 21186 ft 376 kts 22°
2026-04-21 00:21 39.54780 -112.36448 20807 ft 374 kts 22°
2026-04-21 00:21 39.57155 -112.35080 20436 ft 373 kts 22°
2026-04-21 00:22 39.59517 -112.33719 20062 ft 371 kts 22°
2026-04-21 00:22 39.61873 -112.32360 19686 ft 370 kts 22°
2026-04-21 00:22 39.64221 -112.31003 19290 ft 369 kts 23°
2026-04-21 00:22 39.66565 -112.29648 18921 ft 368 kts 23°
2026-04-21 00:23 39.68900 -112.28295 18547 ft 368 kts 23°
2026-04-21 00:23 39.71233 -112.26945 18177 ft 367 kts 23°
2026-04-21 00:23 39.73559 -112.25598 17770 ft 365 kts 23°
2026-04-21 00:23 39.75875 -112.24255 17383 ft 364 kts 23°
2026-04-21 00:24 39.78178 -112.22917 17022 ft 361 kts 24°
2026-04-21 00:24 39.80433 -112.21608 16662 ft 359 kts 23°
2026-04-21 00:24 39.82742 -112.20266 16290 ft 357 kts 23°
2026-04-21 00:24 39.84976 -112.18967 15935 ft 356 kts 23°
2026-04-21 00:25 39.87228 -112.17656 15571 ft 354 kts 23°
2026-04-21 00:25 39.89467 -112.16350 15215 ft 352 kts 23°
2026-04-21 00:25 39.91701 -112.15048 14856 ft 351 kts 23°
2026-04-21 00:25 39.93933 -112.13747 14498 ft 351 kts 23°
2026-04-21 00:26 39.96159 -112.12451 14118 ft 351 kts 25°
2026-04-21 00:26 39.98453 -112.11376 13802 ft 349 kts 16°
2026-04-21 00:26 40.00761 -112.10516 13617 ft 340 kts 17°
2026-04-21 00:26 40.03001 -112.09648 13477 ft 331 kts 18°
2026-04-21 00:27 40.05158 -112.08749 13414 ft 319 kts 18°
2026-04-21 00:27 40.07237 -112.07894 13367 ft 308 kts 17°
2026-04-21 00:27 40.09277 -112.07068 13362 ft 311 kts 17°
2026-04-21 00:27 40.11385 -112.06220 13344 ft 321 kts 17°
2026-04-21 00:28 40.13539 -112.05357 13311 ft 326 kts 17°
2026-04-21 00:28 40.15717 -112.04485 13282 ft 327 kts 17°
2026-04-21 00:28 40.17882 -112.03619 13251 ft 328 kts 17°
2026-04-21 00:28 40.20062 -112.02745 13218 ft 327 kts 17°
2026-04-21 00:29 40.22238 -112.01873 13124 ft 327 kts 17°
2026-04-21 00:29 40.24409 -112.01003 12868 ft 326 kts 17°
2026-04-21 00:29 40.26571 -112.00135 12510 ft 326 kts 16°
2026-04-21 00:29 40.28744 -111.99263 12174 ft 325 kts 16°
2026-04-21 00:30 40.30900 -111.98396 11840 ft 324 kts 16°
2026-04-21 00:30 40.33050 -111.97533 11517 ft 322 kts 15°
2026-04-21 00:30 40.35187 -111.96674 11247 ft 318 kts 16°
2026-04-21 00:30 40.37269 -111.95835 11113 ft 309 kts 16°
2026-04-21 00:31 40.39274 -111.95042 11049 ft 301 kts 13°
2026-04-21 00:31 40.41326 -111.94904 11395 ft 294 kts 347°
2026-04-21 00:31 40.43333 -111.95496 11728 ft 297 kts 343°
2026-04-21 00:31 40.45382 -111.95848 11829 ft 298 kts 356°
2026-04-21 00:32 40.47462 -111.95958 11998 ft 300 kts 354°
2026-04-21 00:32 40.49546 -111.96107 12021 ft 300 kts 354°
2026-04-21 00:32 40.51618 -111.96272 12025 ft 298 kts 354°
2026-04-21 00:32 40.53689 -111.96446 12030 ft 298 kts 353°
2026-04-21 00:33 40.55755 -111.96627 12034 ft 298 kts 353°
2026-04-21 00:33 40.57825 -111.96810 12025 ft 298 kts 353°
2026-04-21 00:33 40.59896 -111.96995 12031 ft 298 kts 353°
2026-04-21 00:33 40.61966 -111.97181 12030 ft 298 kts 353°
2026-04-21 00:34 40.64032 -111.97365 12027 ft 298 kts 353°
2026-04-21 00:34 40.66126 -111.97553 12029 ft 297 kts 353°
2026-04-21 00:34 40.68189 -111.97738 12027 ft 298 kts 353°
2026-04-21 00:34 40.70231 -111.97922 12032 ft 298 kts 353°
2026-04-21 00:35 40.72305 -111.98107 12020 ft 299 kts 353°
2026-04-21 00:35 40.74378 -111.98293 12004 ft 298 kts 353°
2026-04-21 00:35 40.76447 -111.98480 12000 ft 298 kts 353°
2026-04-21 00:35 40.78517 -111.98666 12001 ft 298 kts 353°
2026-04-21 00:36 40.80586 -111.98853 12006 ft 298 kts 353°
2026-04-21 00:36 40.82651 -111.99037 12005 ft 297 kts 353°
2026-04-21 00:36 40.84719 -111.99224 12005 ft 297 kts 353°
2026-04-21 00:36 40.86785 -111.99411 12000 ft 298 kts 353°
2026-04-21 00:37 40.88852 -111.99597 11996 ft 298 kts 353°
2026-04-21 00:37 40.90871 -111.99779 11979 ft 298 kts 353°
2026-04-21 00:37 40.92934 -111.99966 11975 ft 298 kts 353°
2026-04-21 00:37 40.95003 -112.00154 11965 ft 298 kts 353°
2026-04-21 00:38 40.97069 -112.00340 12000 ft 297 kts 354°
2026-04-21 00:38 40.99138 -112.00527 12009 ft 298 kts 353°
2026-04-21 00:38 41.01199 -112.00714 12017 ft 297 kts 353°
2026-04-21 00:38 41.03263 -112.00901 12031 ft 297 kts 353°
2026-04-21 00:39 41.05325 -112.01087 12033 ft 297 kts 353°
2026-04-21 00:39 41.07353 -112.01271 12027 ft 285 kts 353°
2026-04-21 00:39 41.09281 -112.01439 12032 ft 271 kts 354°
2026-04-21 00:39 41.11103 -112.01602 12054 ft 255 kts 353°
2026-04-21 00:40 41.12829 -112.01764 12015 ft 242 kts 353°
2026-04-21 00:40 41.14456 -112.01668 11917 ft 230 kts 16°
2026-04-21 00:40 41.15846 -112.00755 11817 ft 220 kts 36°
2026-04-21 00:40 41.17027 -111.99451 11760 ft 223 kts 47°
2026-04-21 00:41 41.18049 -111.97885 11756 ft 225 kts 57°
2026-04-21 00:41 41.18587 -111.95998 11704 ft 217 kts 90°
2026-04-21 00:41 41.18409 -111.94065 11660 ft 209 kts 116°
2026-04-21 00:41 41.17665 -111.92479 11550 ft 199 kts 141°
2026-04-21 00:42 41.16543 -111.91474 11394 ft 193 kts 163°
2026-04-21 00:42 41.15263 -111.91052 11260 ft 189 kts 176°
2026-04-21 00:42 41.13955 -111.90871 11110 ft 188 kts 181°
2026-04-21 00:42 41.12718 -111.91226 10867 ft 184 kts 207°
2026-04-21 00:43 41.11637 -111.92129 10605 ft 184 kts 214°
2026-04-21 00:43 41.10600 -111.93140 10382 ft 185 kts 218°
2026-04-21 00:43 41.09599 -111.94206 10141 ft 184 kts 219°
2026-04-21 00:43 41.08629 -111.95302 9863 ft 183 kts 219°
2026-04-21 00:44 41.07488 -111.95972 9557 ft 181 kts 188°
2026-04-21 00:44 41.06230 -111.96056 9343 ft 182 kts 185°
2026-04-21 00:44 41.04961 -111.96121 9093 ft 183 kts 185°
2026-04-21 00:45 41.02507 -111.96186 8561 ft 171 kts 184°
2026-04-21 00:45 41.01326 -111.96198 8332 ft 170 kts 182°
2026-04-21 00:45 41.00141 -111.96204 8098 ft 171 kts 183°
2026-04-21 00:45 40.98960 -111.96208 7845 ft 169 kts 182°
2026-04-21 00:46 40.97792 -111.96208 7639 ft 166 kts 183°
2026-04-21 00:46 40.96635 -111.96209 7404 ft 167 kts 183°
2026-04-21 00:46 40.95471 -111.96210 7153 ft 167 kts 182°
2026-04-21 00:46 40.94304 -111.96211 6941 ft 170 kts 181°
2026-04-21 00:47 40.93124 -111.96209 6761 ft 168 kts 182°
2026-04-21 00:47 40.92341 -111.96209 6653 ft 163 kts 181°
2026-04-21 00:47 40.91239 -111.96204 6491 ft 158 kts 184°
2026-04-21 00:47 40.90144 -111.96208 6310 ft 159 kts 183°
2026-04-21 00:48 40.89033 -111.96209 6141 ft 161 kts 182°
2026-04-21 00:48 40.87910 -111.96208 5926 ft 161 kts 182°
2026-04-21 00:48 40.86830 -111.96206 5646 ft 153 kts 184°
2026-04-21 00:48 40.85776 -111.96206 5412 ft 147 kts 183°
2026-04-21 00:49 40.84758 -111.96208 5222 ft 145 kts 182°
2026-04-21 00:49 40.83751 -111.96215 4969 ft 146 kts 181°
2026-04-21 00:49 40.82719 -111.96207 4792 ft 150 kts 180°
2026-04-21 00:49 40.81658 -111.96206 4644 ft 154 kts 179°
2026-04-21 00:50 40.80588 -111.96209 4412 ft 154 kts 183°
2026-04-21 00:50 40.79519 -111.96211 4232 ft 147 kts 181°
2026-04-21 00:50 40.78709 -111.96210 4235 ft 82 kts 179°
2026-04-21 00:50 40.78399 -111.96208 4228 ft 24 kts 180°
2026-04-21 00:51 40.78254 -111.96185 4230 ft 14 kts 136°
2026-04-21 00:51 40.78241 -111.96063 4227 ft 8 kts 90°
2026-04-21 00:51 40.78241 -111.96060 4227 ft 0 kts 90°
2026-04-21 00:54 40.78241 -111.96057 4227 ft 2 kts 90°
2026-04-21 00:54 40.78214 -111.96006 4226 ft 11 kts 167°
2026-04-21 00:54 40.78123 -111.96003 4228 ft 13 kts 179°
2026-04-21 00:55 40.78031 -111.96003 4242 ft 13 kts 180°
2026-04-21 00:55 40.77936 -111.96003 4242 ft 14 kts 180°
2026-04-21 00:55 40.77845 -111.96043 4243 ft 14 kts 219°
2026-04-21 00:55 40.77762 -111.96065 4246 ft 12 kts 180°
2026-04-21 00:56 40.77683 -111.96064 4247 ft 11 kts 180°
2026-04-21 00:56 40.77605 -111.96064 4248 ft 12 kts 180°
2026-04-21 00:56 40.77520 -111.96065 4248 ft 13 kts 180°
2026-04-21 00:56 40.77427 -111.96064 4248 ft 14 kts 180°
2026-04-21 00:57 40.77327 -111.96065 4247 ft 14 kts 180°
2026-04-21 00:57 40.77274 -111.96142 4245 ft 14 kts 265°
2026-04-21 00:57 40.77274 -111.96281 4244 ft 16 kts 273°
2026-04-21 00:57 40.77273 -111.96421 4245 ft 15 kts 270°
2026-04-21 00:58 40.77296 -111.96560 4245 ft 16 kts 287°
2026-04-21 00:58 40.77334 -111.96711 4244 ft 18 kts 288°
2026-04-21 00:58 40.77374 -111.96869 4243 ft 16 kts 289°
2026-04-21 00:58 40.77411 -111.97014 4240 ft 18 kts 288°
2026-04-21 00:59 40.77442 -111.97134 4241 ft 10 kts 288°
2026-04-21 00:59 40.77446 -111.97152 4242 ft 0 kts 289°
2026-04-21 00:59 40.77446 -111.97153 4242 ft 1 kts 289°
2026-04-21 01:00 40.77460 -111.97203 4241 ft 11 kts 290°
2026-04-21 01:00 40.77479 -111.97335 4242 ft 16 kts 262°
2026-04-21 01:00 40.77454 -111.97458 4243 ft 15 kts 296°
2026-04-21 01:00 40.77548 -111.97490 4244 ft 14 kts 355°
2026-04-21 01:01 40.77644 -111.97501 4247 ft 14 kts 354°
2026-04-21 01:01 40.77745 -111.97513 4246 ft 16 kts 355°
2026-04-21 01:01 40.77855 -111.97529 4243 ft 12 kts 347°
2026-04-21 01:01 40.77930 -111.97554 4242 ft 9 kts 18°
2026-04-21 01:02 40.77994 -111.97519 4242 ft 10 kts 25°
2026-04-21 01:02 40.78059 -111.97479 4243 ft 10 kts 25°
2026-04-21 01:02 40.78098 -111.97458 4243 ft 0 kts
2026-04-21 01:02 40.78104 -111.97462 4243 ft 1 kts 329°
2026-04-21 01:03 40.78113 -111.97469 4243 ft 2 kts 348°
2026-04-21 01:03 40.78114 -111.97460 4243 ft 0 kts 163°
2026-04-21 01:03 40.78091 -111.97466 4243 ft 8 kts 196°
2026-04-21 01:03 40.78047 -111.97558 4242 ft 19 kts 284°
2026-04-21 01:04 40.78154 -111.97610 4234 ft 18 kts 355°
2026-04-21 01:04 40.78265 -111.97623 4229 ft 16 kts 354°
2026-04-21 01:04 40.78372 -111.97635 4228 ft 13 kts 355°
2026-04-21 01:04 40.78466 -111.97647 4229 ft 13 kts 355°
2026-04-21 01:05 40.78551 -111.97656 4233 ft 11 kts 355°
2026-04-21 01:05 40.78620 -111.97664 4235 ft 9 kts 355°
2026-04-21 01:05 40.78686 -111.97672 4236 ft 10 kts 355°
2026-04-21 01:05 40.78746 -111.97690 4235 ft 6 kts 315°
2026-04-21 01:06 40.78756 -111.97743 4235 ft 7 kts 269°
2026-04-21 01:06 40.78753 -111.97804 4236 ft 7 kts 265°
2026-04-21 01:06 40.78748 -111.97864 4236 ft 7 kts 265°
2026-04-21 01:06 40.78744 -111.97936 4236 ft 8 kts 265°
2026-04-21 01:07 40.78738 -111.98023 4235 ft 10 kts 265°
2026-04-21 01:07 40.78731 -111.98125 4234 ft 12 kts 265°
2026-04-21 01:07 40.78724 -111.98235 4234 ft 12 kts 265°
2026-04-21 01:07 40.78716 -111.98343 4234 ft 12 kts 265°
2026-04-21 01:08 40.78700 -111.98447 4234 ft 5 kts 216°
2026-04-21 01:08 40.78668 -111.98449 4235 ft 5 kts 169°
2026-04-21 01:08 40.78639 -111.98439 4234 ft 2 kts 164°
2026-04-21 01:08 40.78633 -111.98437 4234 ft 0 kts 163°